Погода в Динаре

Франция     48°38′02″N   2°04′03″W
темп.,
°C
ветер,
м/с
пор.,
м/с
влажн.,
%
обл.,
%
осадки,
мм/ч
давл.,
гПа
погр.,
м
6 марта, сб
сб601:00+5всв89659 0.0 10321003
04:00+4всв89670 0.0 1031619
07:00+4всв910670 0.0 1031574
10:00+4всв810660 0.0 1031577
13:00+6всв79610 0.0 10301054
16:00+7св78640 0.0 10281097
19:00+7св99680 0.0 1028711
22:00+6св99720 0.0 1028476
7 марта, вс
вс701:00+6всв79660 0.0 1028515
04:00+5всв68670 0.0 1026396
07:00+4св67670 0.0 1026394
10:00+5св78700 0.0 1026567
13:00+6св67680 0.0 1026802
16:00+7ссв78680 0.0 1024826
19:00+6св88720 0.0 1023642
22:00+5св78760 0.0 1025622
8 марта, пн
пн801:00+5всв67740 0.0 1025638
04:00+4всв56740 0.0 1024612
07:00+4св55760 0.0 1024515
10:00+5всв45700 0.0 1025478
13:00+5ссв22670 0.0 1024338
16:00+6сз55690 0.0 1023497
19:00+7с56720 0.0 1023526
22:00+6с557425 0.0 1024599
9 марта, вт
вт901:00+6ссз226828 0.0 1024658
04:00+6зюз126962 0.0 1023666
07:00+6з347244 0.0 1024589
10:00+7зсз347662 0.1 1024601
13:00+7зсз337262 0.1 1024510
16:00+7з12660 0.0 1022364
19:00+8юв457430 0.0 1022197
22:00+7юз7981100 0.0 1022394
10 марта, ср
ср1001:00+6ююз81177100 0.0 1021496
04:00+6ююз91378100 0.0 1019620
07:00+7ююз101679100 0.1 1017789
10:00+8ююз111782100 0.4 1016779
13:00+9ююз131987100 1.5 1014677
16:00+10ююз132089100 1.0 1012664
19:00+11ююз111792100 1.9 1010350
22:00+11юз111887100 0.1 1010411